Date String (YYYY-MM-DD hh:mm:ss) UTC,Instrument flags,absolute air pressure of the measurement (hPa),sample flow rate (lpm),inlet stack bypass flow (lpm),air temperature of the measurement (°C),ambient temperature measured by the external sensor (°C),aerosol sample conditioner tube jacket temperature (°C),OPC LED temperature (°C),internal box temperature (°C),relative humidity of the measurement (%),span deviation,mass concentration of particles derived from Lorenz-Mie calculation of OPC scattering (μg/m³),mass concentration of particles derived from Lorenz-Mie calculation of OPC scattering (μg/m³),mass concentration of particles derived from Lorenz-Mie calculation of OPC scattering (μg/m³)
DateTimeUTC,F1_M11,P_M11,Q1_M11,Q2_M11,T1_M11,T2_M11,T3_M11,T4_M11,T5_M11,U1_M11,ZSPAN_M11,X0_M11,X2_M11,X1_M11
2024-02-24 06:00:00,SystemResetWarning,0830.2,5.01,000.00,019.8,018.8,000.0,028.3,021.4,09.0,0000.0,0000.83,0000.59,0000.49
2024-02-24 06:01:00,SystemResetWarning,0830.2,5.00,000.00,019.7,018.8,000.0,028.3,021.4,08.9,0000.0,0000.85,0000.60,0000.49
2024-02-24 06:02:00,SystemResetWarning,0830.2,5.00,000.00,019.7,018.8,000.0,028.3,021.4,08.7,0000.0,0000.88,0000.61,0000.50
2024-02-24 06:03:00,SystemResetWarning,0830.2,5.00,000.00,019.7,018.8,000.0,028.2,021.4,08.8,0000.0,0000.88,0000.61,0000.50
2024-02-24 06:04:00,SystemResetWarning,0830.2,4.99,000.00,019.7,018.8,000.0,028.2,021.3,08.7,0000.0,0000.93,0000.62,0000.50
2024-02-24 06:05:00,SystemResetWarning,0830.2,5.00,000.00,019.7,018.8,000.0,028.2,021.3,08.9,0000.0,0001.10,0000.66,0000.51
2024-02-24 06:06:00,SystemResetWarning,0830.1,5.01,000.00,019.7,018.7,000.0,028.2,021.3,08.7,0000.0,0001.06,0000.64,0000.51
2024-02-24 06:07:00,SystemResetWarning,0830.1,5.01,000.00,019.6,018.7,000.0,028.2,021.3,08.6,0000.0,0001.06,0000.64,0000.51
2024-02-24 06:08:00,SystemResetWarning,0830.1,5.00,000.00,019.6,018.7,000.0,028.2,021.2,08.6,0000.0,0001.08,0000.64,0000.51
2024-02-24 06:09:00,SystemResetWarning,0830.1,5.00,000.00,019.6,018.6,000.0,028.1,021.2,08.7,0000.0,0001.11,0000.66,0000.51
2024-02-24 06:10:00,SystemResetWarning,0830.1,5.00,000.00,019.6,018.6,000.0,028.1,021.2,08.6,0000.0,0001.14,0000.67,0000.51
2024-02-24 06:11:00,SystemResetWarning,0830.1,5.00,000.00,019.6,018.6,000.0,028.1,021.2,08.6,0000.0,0001.09,0000.66,0000.51
2024-02-24 06:12:00,SystemResetWarning,0830.0,5.00,000.00,019.5,018.6,000.0,028.1,021.2,08.6,0000.0,0001.14,0000.68,0000.52
2024-02-24 06:13:00,SystemResetWarning,0830.0,5.00,000.00,019.5,018.6,000.0,028.0,021.2,08.7,0000.0,0001.26,0000.70,0000.52
2024-02-24 06:14:00,SystemResetWarning,0830.0,4.99,000.00,019.5,018.6,000.0,028.0,021.2,08.7,0000.0,0001.33,0000.71,0000.52
2024-02-24 06:15:00,SystemResetWarning,0830.0,5.00,000.00,019.5,018.6,000.0,028.0,021.1,08.9,0000.0,0001.28,0000.69,0000.52
2024-02-24 06:16:00,SystemResetWarning,0830.0,5.01,000.00,019.5,018.6,000.0,028.0,021.1,09.0,0000.0,0001.26,0000.68,0000.52
2024-02-24 06:17:00,SystemResetWarning,0830.0,5.00,000.00,019.4,018.5,000.0,028.0,021.1,09.2,0000.0,0001.58,0000.72,0000.52
2024-02-24 06:18:00,SystemResetWarning,0830.0,5.00,000.00,019.4,018.5,000.0,028.0,021.1,09.2,0000.0,0001.61,0000.72,0000.52
2024-02-24 06:19:00,SystemResetWarning,0830.0,5.00,000.00,019.4,018.5,000.0,027.9,021.0,09.2,0000.0,0001.61,0000.72,0000.52
2024-02-24 06:20:00,SystemResetWarning,0830.0,5.01,000.00,019.4,018.5,000.0,027.9,021.0,09.2,0000.0,0001.69,0000.74,0000.52
2024-02-24 06:21:00,SystemResetWarning,0830.0,5.01,000.00,019.4,018.5,000.0,027.9,021.0,09.1,0000.0,0001.72,0000.73,0000.52
2024-02-24 06:22:00,SystemResetWarning,0830.0,5.00,000.00,019.4,018.4,000.0,027.9,021.0,09.3,0000.0,0001.74,0000.73,0000.52
2024-02-24 06:23:00,SystemResetWarning,0830.0,5.00,000.00,019.4,018.4,000.0,027.8,021.0,09.1,0000.0,0001.73,0000.73,0000.53
2024-02-24 06:24:00,SystemResetWarning,0829.9,4.99,000.00,019.3,018.4,000.0,027.8,021.0,09.2,0000.0,0001.64,0000.72,0000.53
2024-02-24 06:25:00,SystemResetWarning,0829.9,5.00,000.00,019.3,018.4,000.0,027.8,021.0,09.3,0000.0,0001.58,0000.73,0000.54
2024-02-24 06:26:00,SystemResetWarning,0830.0,4.99,000.00,019.3,018.4,000.0,027.8,020.9,09.4,0000.0,0001.59,0000.73,0000.54
2024-02-24 06:27:00,SystemResetWarning,0829.9,4.99,000.00,019.3,018.3,000.0,027.8,020.9,09.3,0000.0,0001.54,0000.75,0000.56
2024-02-24 06:28:00,SystemResetWarning,0829.9,5.01,000.00,019.2,018.3,000.0,027.8,020.9,09.4,0000.0,0001.33,0000.76,0000.58
2024-02-24 06:29:00,SystemResetWarning,0829.9,5.02,000.00,019.2,018.3,000.0,027.7,020.8,09.4,0000.0,0001.27,0000.76,0000.58
2024-02-24 06:30:00,SystemResetWarning,0829.9,4.98,000.00,019.2,018.3,000.0,027.7,020.8,09.5,0000.0,0001.28,0000.79,0000.61
2024-02-24 06:31:00,SystemResetWarning,0829.8,4.99,000.00,019.2,018.3,000.0,027.7,020.8,09.6,0000.0,0001.24,0000.79,0000.62
2024-02-24 06:32:00,SystemResetWarning,0829.8,5.01,000.00,019.2,018.2,000.0,027.7,020.8,09.6,0000.0,0001.16,0000.79,0000.63
2024-02-24 06:33:00,SystemResetWarning,0829.8,5.01,000.00,019.2,018.2,000.0,027.7,020.8,09.6,0000.0,0001.14,0000.79,0000.64
2024-02-24 06:34:00,SystemResetWarning,0829.8,5.00,000.00,019.1,018.2,000.0,027.6,020.7,09.7,0000.0,0001.11,0000.78,0000.65
2024-02-24 06:35:00,SystemResetWarning,0829.8,5.01,000.00,019.1,018.2,000.0,027.6,020.7,09.7,0000.0,0001.08,0000.77,0000.65
2024-02-24 06:36:00,SystemResetWarning,0829.8,4.99,000.00,019.1,018.2,000.0,027.6,020.7,09.8,0000.0,0001.13,0000.79,0000.65
2024-02-24 06:37:00,SystemResetWarning,0829.8,5.00,000.00,019.1,018.1,000.0,027.6,020.7,09.7,0000.0,0001.19,0000.81,0000.66
2024-02-24 06:38:00,SystemResetWarning,0829.8,4.99,000.00,019.1,018.1,000.0,027.5,020.7,09.9,0000.0,0001.19,0000.82,0000.66
2024-02-24 06:39:00,SystemResetWarning,0829.8,5.00,000.00,019.0,018.2,000.0,027.5,020.7,10.1,0000.0,0001.10,0000.79,0000.66
2024-02-24 06:40:00,SystemResetWarning,0829.8,5.02,000.00,019.0,018.1,000.0,027.5,020.7,09.9,0000.0,0001.12,0000.80,0000.66
2024-02-24 06:41:00,SystemResetWarning,0829.8,4.98,000.00,019.0,018.1,000.0,027.5,020.6,10.1,0000.0,0001.17,0000.81,0000.66
2024-02-24 06:42:00,SystemResetWarning,0829.8,5.00,000.00,019.0,018.1,000.0,027.5,020.6,10.3,0000.0,0001.18,0000.82,0000.66
2024-02-24 06:43:00,SystemResetWarning,0829.8,5.01,000.00,019.0,018.1,000.0,027.5,020.6,10.3,0000.0,0001.24,0000.84,0000.67
2024-02-24 06:44:00,SystemResetWarning,0829.8,5.01,000.00,019.0,018.1,000.0,027.4,020.6,10.2,0000.0,0001.44,0000.88,0000.67
2024-02-24 06:45:00,SystemResetWarning,0829.8,4.99,000.00,019.0,018.1,000.0,027.4,020.6,10.0,0000.0,0001.50,0000.90,0000.67
2024-02-24 06:46:00,SystemResetWarning,0829.7,5.00,000.00,018.9,018.1,000.0,027.4,020.5,10.2,0000.0,0001.54,0000.92,0000.68
2024-02-24 06:47:00,SystemResetWarning,0829.8,5.00,000.00,018.9,018.0,000.0,027.4,020.5,10.1,0000.0,0001.53,0000.92,0000.69
2024-02-24 06:48:00,SystemResetWarning,0829.8,5.00,000.00,018.9,018.0,000.0,027.4,020.5,10.0,0000.0,0001.52,0000.92,0000.70
2024-02-24 06:49:00,SystemResetWarning,0829.8,5.00,000.00,018.9,018.0,000.0,027.4,020.5,10.2,0000.0,0001.53,0000.92,0000.70
2024-02-24 06:50:00,SystemResetWarning,0829.8,5.00,000.00,018.9,018.0,000.0,027.3,020.5,10.4,0000.0,0001.55,0000.94,0000.70
2024-02-24 06:51:00,SystemResetWarning,0829.8,5.00,000.00,018.9,018.0,000.0,027.3,020.5,10.3,0000.0,0001.60,0000.96,0000.70
2024-02-24 06:52:00,SystemResetWarning,0829.8,5.00,000.00,018.9,018.0,000.0,027.3,020.5,10.2,0000.0,0001.59,0000.95,0000.70
2024-02-24 06:53:00,SystemResetWarning,0829.8,4.99,000.00,018.8,018.0,000.0,027.3,020.4,10.2,0000.0,0001.63,0000.95,0000.71
2024-02-24 06:54:00,SystemResetWarning,0829.8,5.00,000.00,018.8,018.0,000.0,027.3,020.4,10.2,0000.0,0001.72,0000.95,0000.71
2024-02-24 06:55:00,SystemResetWarning,0829.7,5.02,000.00,018.8,018.0,000.0,027.3,020.4,10.3,0000.0,0001.65,0000.94,0000.71
2024-02-24 06:56:00,SystemResetWarning,0829.7,5.01,000.00,018.8,018.0,000.0,027.3,020.4,10.1,0000.0,0001.59,0000.94,0000.71
2024-02-24 06:57:00,SystemResetWarning,0829.7,4.99,000.00,018.8,017.9,000.0,027.3,020.4,09.8,0000.0,0001.69,0000.95,0000.71
2024-02-24 06:58:00,SystemResetWarning,0829.7,4.99,000.00,018.8,017.9,000.0,027.3,020.4,09.7,0000.0,0001.80,0001.00,0000.70
2024-02-24 06:59:00,SystemResetWarning,0829.7,5.01,000.00,018.8,017.9,000.0,027.2,020.4,09.6,0000.0,0001.78,0000.99,0000.70
